SCP
1 2 3 4 4 3 2 1 1 1 1 1 1 0 0 0 0 0 0 1 1 0 0 1 1 1 1 1 2 3 2 2 1 2 2 3 3 3 3 3 3 2 2
1 2 3 4 3 3 2 1 1 1 1 1 1 1 0 0 1 0 0 0 1 1 0 1 1 1 1 2 2 3 3 2 1 1 2 2 2 3 3 4 3 3 2
2 2 3 3 3 3 2 1 1 1 1 1 1 1 1 1 1 0 0 0 1 1 0 0 1 1 1 2 2 3 3 2 2 1 1 1 1 3 4 4 3 3 2
2 2 3 3 3 2 2 1 1 1 1 1 1 1 1 1 1 1 0 0 0 0 0 0 1 1 2 2 2 2 3 2 2 1 1 1 1 3 4 4 3 2 2
2 2 3 3 3 2 1 1 1 1 1 1 1 1 1 1 1 1 1 0 0 0 0 0 0 1 2 2 2 2 2 2 1 1 1 0 1 3 4 4 3 2 2
2 2 3 3 3 2 1 1 1 1 1 1 1 1 1 1 1 1 1 0 0 0 0 0 0 1 1 2 2 2 2 2 1 1 0 1 1 2 3 3 3 2 2
2 2 2 3 3 2 1 1 1 1 1 1 1 1 1 1 1 1 1 0 0 0 0 0 0 1 1 2 2 2 2 1 1 1 1 1 1 2 3 3 3 2 2
2 2 2 2 2 2 2 1 1 1 1 1 1 1 1 1 1 1 1 1 1 1 1 1 1 1 1 1 1 1 1 1 1 1 1 1 1 2 3 3 3 2 2
2 2 2 2 2 2 2 1 1 1 2 2 2 2 2 1 1 1 1 1 1 1 1 1 1 1 1 1 1 1 1 1 1 1 1 1 2 2 2 2 2 2 1
2 3 2 2 2 1 1 1 2 2 2 2 2 2 2 1 1 1 1 1 1 1 1 1 1 1 1 1 1 1 1 1 1 1 1 2 2 2 2 2 2 1 1
3 3 3 2 1 1 1 1 2 2 2 2 2 2 1 1 1 1 1 1 1 1 1 1 1 1 1 1 1 1 2 2 2 1 1 2 3 2 2 1 1 1 1
3 4 3 2 2 1 1 1 1 2 2 2 2 2 1 1 1 1 1 1 2 2 2 2 1 1 1 1 1 1 2 2 2 2 2 2 3 3 2 1 1 1 1
3 4 3 3 2 1 1 1 1 2 2 2 2 1 1 1 1 1 1 1 1 1 2 2 1 1 1 1 1 1 1 2 2 2 2 2 3 3 2 1 1 1 2
3 3 3 3 2 2 1 1 1 2 2 2 1 2 2 1 1 1 1 1 1 1 1 1 1 1 1 0 0 1 1 1 2 2 3 3 3 3 2 1 1 2 2
2 3 3 3 3 3 2 2 2 2 2 2 1 1 2 2 2 1 1 1 1 1 1 1 1 1 0 0 0 0 1 1 1 2 3 3 3 3 2 1 1 2 2
3 3 3 3 4 4 4 3 3 3 2 2 1 1 1 2 2 1 1 1 1 1 1 1 1 1 1 0 0 0 0 1 1 2 3 3 3 3 2 1 1 1 2
3 3 4 4 5 5 5 4 4 4 3 2 1 1 1 2 2 1 1 1 1 1 1 2 2 1 1 0 0 0 0 1 1 2 3 3 3 2 2 2 1 1 1
3 4 5 5 6 6 5 5 4 4 4 2 2 2 1 1 1 1 1 1 1 1 1 2 2 2 1 1 1 0 0 1 1 2 3 3 2 2 2 2 1 1 1
3 5 6 7 7 6 5 5 5 5 4 3 2 2 2 2 2 1 1 2 1 1 1 2 2 2 2 1 1 1 1 1 2 2 2 3 2 2 2 1 1 1 1
3 5 7 8 8 6 5 4 4 5 4 3 2 2 3 2 2 2 2 2 2 1 1 2 2 2 2 2 1 1 1 2 2 2 2 3 2 2 1 1 1 1 1
3 4 6 8 8 6 4 4 4 4 4 3 2 2 2 2 2 2 2 2 2 2 2 2 2 3 2 2 1 1 1 1 2 2 3 2 2 1 1 1 1 1 1
3 3 5 6 7 6 4 4 3 3 3 3 3 2 2 2 2 2 3 2 2 2 2 2 2 2 2 2 2 1 1 1 1 2 2 2 1 1 1 1 1 1 1
3 3 4 5 6 6 6 4 3 3 3 3 3 3 3 2 2 2 2 2 1 2 2 2 2 2 2 2 2 2 1 1 1 1 1 1 1 1 1 1 1 1 1
3 3 4 5 6 7 7 5 4 3 3 4 4 3 3 2 2 2 1 1 1 1 2 2 2 2 2 2 2 2 2 1 1 1 1 1 1 1 1 1 1 1 1
3 3 4 5 6 6 6 6 5 4 3 4 4 3 2 3 3 3 2 2 2 2 2 2 2 2 2 2 2 2 2 2 2 1 1 1 1 1 1 1 1 1 1
3 3 4 5 5 5 5 6 6 5 4 4 3 3 2 3 4 3 2 2 2 2 2 2 2 2 2 2 2 2 2 2 2 2 1 2 2 1 1 1 1 1 1
Wind_Speed
6 10 12 8 8 7 7 7 7 7 6 6 6 6 6 5 5 5 5 4 4 4 4 4 4 4 5 5 6 6 6 7 7 7 8 9 10 10 10 10 10 8 11
8 11 11 8 8 8 7 7 7 7 6 6 6 5 5 5 4 4 4 4 4 4 4 4 4 4 5 5 5 5 5 6 7 8 9 10 11 10 9 9 7 7 11
9 10 11 9 8 7 7 7 7 6 6 6 6 5 5 5 4 4 4 4 4 4 4 4 4 4 5 5 5 5 5 6 6 7 9 8 10 11 10 9 10 10 10
9 9 9 10 8 7 7 7 6 6 5 5 6 5 5 5 4 4 4 4 4 4 4 4 3 4 4 4 4 4 5 6 6 7 6 6 8 11 11 11 11 10 10
9 9 11 9 8 7 7 6 6 5 5 5 5 5 5 5 5 5 4 4 4 3 3 3 3 3 4 4 4 4 5 5 6 6 4 6 7 11 11 11 11 11 10
9 9 12 8 8 7 6 5 5 5 5 5 5 4 5 5 5 4 4 4 4 4 3 3 3 3 4 4 4 4 5 6 6 4 5 6 7 11 11 11 11 11 11
9 9 12 9 8 6 6 5 5 5 5 5 5 4 4 4 4 4 4 4 4 4 4 4 3 4 4 4 4 4 4 4 3 4 5 5 7 11 11 11 11 11 11
9 9 11 9 7 6 5 5 5 5 5 5 4 4 4 4 4 4 4 4 4 4 4 4 4 4 4 4 4 3 3 3 3 4 5 5 9 10 10 11 10 11 11
8 8 8 9 8 7 6 5 5 4 4 4 4 4 4 3 3 3 3 4 4 4 4 4 4 3 3 3 4 3 3 3 2 3 4 5 9 10 10 10 10 10 10
7 7 6 6 6 6 7 7 4 4 3 3 3 3 2 2 3 3 3 3 3 3 3 3 3 3 3 3 3 3 3 5 3 4 3 6 10 9 10 10 10 10 10
6 5 5 5 4 3 4 6 6 6 4 4 4 3 2 1 2 3 5 4 3 3 3 3 2 2 2 4 3 3 4 1 3 3 3 8 10 9 9 9 10 10 9
7 6 4 4 4 3 3 3 3 3 3 2 1 1 0 1 1 2 5 3 2 2 2 2 1 3 3 2 4 5 1 1 2 3 5 9 9 9 9 9 9 9 9
7 6 5 4 3 2 2 2 1 1 2 2 2 1 1 1 0 1 1 3 3 3 2 3 2 0 1 1 1 1 1 1 1 2 5 9 9 9 9 9 9 9 9
7 6 5 4 3 2 1 1 2 1 1 1 1 0 0 0 1 1 1 1 0 0 1 0 1 2 1 1 1 2 2 1 1 2 5 8 8 8 9 9 9 9 9
6 6 5 4 3 2 2 1 1 1 1 1 0 1 1 0 1 1 1 1 1 1 1 0 1 2 1 1 1 2 2 2 1 2 4 9 8 8 9 9 9 9 9
6 5 5 5 4 3 2 2 1 1 1 1 0 1 1 1 1 1 1 1 1 1 1 0 1 1 1 1 1 2 1 1 2 1 3 7 9 9 9 9 9 9 9
5 5 5 5 4 3 3 2 1 1 1 1 0 1 1 1 1 1 1 1 1 1 0 0 0 0 1 2 2 1 1 2 2 1 2 3 6 9 10 9 9 9 9
4 4 5 4 5 4 3 2 1 1 0 1 1 0 1 1 1 1 1 1 1 1 1 0 0 0 1 1 1 1 2 2 2 2 1 2 3 6 9 10 9 9 8
5 4 5 4 5 4 4 2 1 1 1 1 1 1 1 1 1 2 1 1 2 1 1 1 1 0 1 1 2 2 2 2 2 2 1 2 3 4 6 9 10 8 8
4 4 4 4 4 4 4 3 2 2 1 1 0 1 1 1 2 2 1 1 2 1 1 1 1 0 1 1 2 3 2 2 1 2 1 2 3 4 5 6 6 8 9
4 4 4 4 3 3 2 3 2 2 2 1 0 1 1 2 2 2 2 1 1 1 1 0 0 1 1 1 2 3 3 3 2 2 1 1 3 3 4 4 3 4 6
4 3 4 4 3 3 2 2 2 1 1 0 0 1 1 1 2 1 1 1 1 1 1 0 0 1 0 0 0 1 2 3 3 2 2 2 2 3 3 4 4 3 3
3 3 3 3 4 3 2 2 1 1 1 0 1 0 1 1 1 1 1 1 0 1 0 1 1 1 0 0 1 2 1 1 2 3 3 2 2 2 2 3 4 3 3
3 4 4 4 4 3 3 2 2 2 1 1 1 0 0 1 0 0 0 1 1 1 0 2 1 1 2 1 1 1 2 1 1 3 3 3 3 3 2 2 3 3 3
3 4 4 4 4 4 3 3 3 2 1 0 1 1 1 0 0 0 0 0 1 1 1 2 1 1 1 1 0 1 1 1 1 1 2 3 3 2 2 2 2 2 3
3 4 4 5 5 4 4 3 2 1 1 0 1 1 1 1 0 0 0 0 1 1 0 1 1 1 1 1 1 0 1 1 2 1 2 2 2 2 2 2 2 3 3
Wind_Direction
130 117 121 133 130 126 122 118 115 111 105 102 102 103 99 96 93 88 84 84 90 95 108 121 126 138 147 150 155 155 153 152 154 154 153 152 151 152 151 152 156 141 131
122 118 126 134 133 130 123 120 116 110 107 105 102 99 98 94 89 89 84 79 79 90 96 111 127 136 145 150 153 153 151 153 156 157 160 157 153 154 152 151 146 124 136
120 121 135 133 134 130 124 121 116 111 107 103 99 95 92 88 86 91 86 79 74 81 95 101 120 136 145 149 152 152 151 149 156 165 178 163 149 150 150 147 137 137 139
123 126 122 125 130 127 123 120 116 113 108 99 94 89 84 80 76 79 86 81 74 76 87 98 105 129 138 138 139 147 156 153 162 190 182 152 147 142 149 147 142 144 140
125 125 116 128 127 125 121 119 114 110 107 101 93 87 80 74 70 68 72 77 74 72 79 90 98 123 132 132 132 138 155 157 170 198 142 139 139 138 147 148 147 143 141
134 131 118 128 127 123 120 118 114 108 103 100 93 85 76 70 66 65 67 67 66 64 68 80 89 115 130 132 133 135 145 158 187 159 131 138 136 138 147 151 150 146 144
134 129 123 127 126 124 121 117 112 106 101 99 96 89 78 67 58 57 63 64 64 65 68 70 87 102 119 130 131 135 146 174 208 133 131 133 124 135 146 148 147 147 145
135 132 126 133 129 127 126 119 110 106 101 98 92 86 78 69 59 55 64 64 61 65 73 72 83 92 100 114 130 140 159 221 174 134 134 129 119 137 142 144 147 147 148
137 133 137 143 144 146 136 123 112 105 99 93 87 83 80 79 72 67 72 70 62 59 74 78 78 90 102 111 121 130 152 230 221 138 140 122 125 141 144 142 146 147 146
139 137 141 144 144 157 148 137 130 121 109 101 97 90 99 148 140 124 122 90 84 71 68 78 84 88 97 107 125 150 191 222 178 141 133 118 128 140 145 144 145 146 146
146 147 153 149 153 160 139 134 158 159 150 167 148 142 213 172 111 136 74 84 91 86 76 82 91 91 152 147 150 172 210 181 129 125 122 118 135 143 146 147 149 150 149
161 161 159 154 159 161 143 146 171 164 142 174 99 115 111 56 26 40 102 106 113 117 131 127 157 206 230 147 152 189 171 138 136 134 119 127 141 148 148 148 152 153 154
161 166 164 164 166 172 156 159 150 149 139 155 116 111 50 350 67 48 111 149 156 177 175 157 190 131 66 61 73 104 82 97 97 116 117 129 141 147 151 152 154 153 154
167 170 170 167 167 183 174 165 180 171 147 133 118 307 65 35 347 21 2 3 16 103 57 28 64 71 66 73 72 74 100 98 100 110 122 139 148 152 158 159 158 156 155
173 173 173 172 167 174 190 229 180 195 173 135 122 95 341 331 2 26 3 345 341 21 144 101 81 93 99 113 95 76 71 90 108 127 133 146 154 158 163 164 163 162 162
180 180 174 181 171 184 188 209 208 208 195 238 161 55 342 341 21 349 276 329 331 347 9 354 85 117 117 95 90 84 71 79 100 120 135 147 157 163 165 165 166 164 164
184 183 183 188 175 189 204 212 206 219 216 240 78 55 332 344 358 293 326 287 331 342 26 250 110 156 139 136 115 98 82 64 95 127 141 153 157 159 162 163 164 163 165
187 180 190 196 181 184 196 214 228 264 272 272 310 343 335 335 311 291 296 298 311 281 264 147 254 68 100 125 114 102 99 101 117 123 138 147 152 154 157 157 159 161 162
187 186 191 200 191 188 185 186 201 175 297 288 292 319 338 302 293 277 287 343 272 277 283 285 75 8 111 111 132 122 110 109 115 115 112 120 120 136 144 151 157 159 161
179 184 191 187 190 193 186 183 193 180 200 246 276 358 321 303 304 291 240 241 273 286 298 346 27 34 76 118 118 98 92 98 106 101 127 125 125 137 142 144 160 159 158
168 177 187 195 180 198 198 203 195 196 212 218 214 40 323 320 315 297 299 185 244 236 303 312 248 157 141 128 136 134 132 132 116 101 110 122 126 131 135 141 152 153 156
167 177 186 188 184 197 192 217 219 224 228 232 304 84 306 308 305 280 325 278 216 189 162 262 303 307 86 86 256 171 164 156 150 127 131 135 122 137 140 137 135 144 153
169 178 180 181 177 183 184 191 177 158 179 162 250 178 295 316 323 335 8 324 321 257 192 233 228 255 261 139 344 313 276 108 127 134 132 127 129 130 133 130 142 144 155
170 169 168 169 168 167 176 179 191 207 212 222 248 57 342 328 328 342 9 345 307 310 328 247 216 244 256 227 136 350 333 6 246 140 147 141 145 144 146 158 144 151 163
160 157 156 160 162 165 171 173 195 206 211 187 194 154 258 217 334 4 31 334 273 287 319 312 322 264 250 275 250 153 143 167 234 215 155 146 152 153 160 171 162 170 168
151 154 150 158 166 166 168 168 185 156 141 174 194 198 211 191 143 38 25 1 295 321 345 295 278 245 295 319 312 289 217 180 170 193 164 161 160 155 158 166 184 177 179